| time (UTC) | temp C | wind direction | speed KPH | gust KPH | rain 1hr cm | rain 24hr cm | rain mn cm | humidity % | barometer mb |
| 20260504050503 | 11 | 211 | 0.0 | 3.2 | 0.00 | 0.00 | 0.00 | 52 | 1018.9 |
| 20260504050004 | 10 | 211 | 0.0 | 3.2 | 0.00 | 0.00 | 0.00 | 52 | 1018.8 |
| 20260504045503 | 10 | 211 | 0.0 | 4.8 | 0.00 | 0.00 | 0.00 | 53 | 1018.7 |
| 20260504045010 | 10 | 210 | 1.6 | 4.8 | 0.00 | 0.00 | 0.00 | 52 | 1018.6 |
| 20260504044504 | 10 | 249 | 1.6 | 4.8 | 0.00 | 0.00 | 0.00 | 54 | 1018.5 |
| 20260504044004 | 10 | 306 | 0.0 | 4.8 | 0.00 | 0.00 | 0.00 | 54 | 1018.5 |
| 20260504043505 | 10 | 263 | 1.6 | 4.8 | 0.00 | 0.00 | 0.00 | 55 | 1018.4 |
| 20260504043004 | 10 | 29 | 0.0 | 3.2 | 0.00 | 0.00 | 0.00 | 56 | 1018.2 |
| 20260504042503 | 10 | 29 | 0.0 | 3.2 | 0.00 | 0.00 | 0.00 | 56 | 1018.2 |
| 20260504041504 | 9 | 28 | 0.0 | 3.2 | 0.00 | 0.00 | 0.00 | 57 | 1018.3 |
| 20260504041004 | 8 | 28 | 0.0 | 3.2 | 0.00 | 0.00 | 0.00 | 54 | 1018.3 |
| 20260504040505 | 8 | 28 | 0.0 | 1.6 | 0.00 | 0.00 | 0.00 | 57 | 1018.3 |
| 20260504040004 | 8 | 28 | 0.0 | 1.6 | 0.00 | 0.00 | 0.00 | 58 | 1018.4 |
| 20260504035504 | 8 | 28 | 0.0 | 4.8 | 0.00 | 0.00 | 0.00 | 61 | 1018.4 |
| 20260504034503 | 8 | 28 | 0.0 | 4.8 | 0.00 | 0.00 | 0.00 | 56 | 1018.4 |
| 20260504034004 | 8 | 115 | 0.0 | 0.0 | 0.00 | 0.00 | 0.00 | 55 | 1018.4 |
| 20260504033504 | 8 | 115 | 0.0 | 0.0 | 0.00 | 0.00 | 0.00 | 54 | 1018.4 |
| 20260504032503 | 8 | 115 | 0.0 | 0.0 | 0.00 | 0.00 | 0.00 | 55 | 1018.4 |
| 20260504032004 | 8 | 115 | 0.0 | 0.0 | 0.00 | 0.00 | 0.00 | 56 | 1018.4 |
| 20260504031504 | 8 | 115 | 0.0 | 0.0 | 0.00 | 0.00 | 0.00 | 55 | 1018.4 |
| 20260504031004 | 8 | 115 | 0.0 | 1.6 | 0.00 | 0.00 | 0.00 | 55 | 1018.3 |
| 20260504030504 | 8 | 115 | 0.0 | 1.6 | 0.00 | 0.00 | 0.00 | 55 | 1018.4 |
| 20260504030004 | 8 | 115 | 0.0 | 0.0 | 0.00 | 0.00 | 0.00 | 53 | 1018.4 |
| 20260504025504 | 8 | 115 | 0.0 | 0.0 | 0.00 | 0.00 | 0.00 | 52 | 1018.3 |
| 20260504025005 | 9 | 115 | 0.0 | 1.6 | 0.00 | 0.00 | 0.00 | 53 | 1018.3 |
| 20260504024504 | 9 | 115 | 0.0 | 3.2 | 0.00 | 0.00 | 0.00 | 52 | 1018.2 |
| 20260504024004 | 9 | 115 | 1.6 | 3.2 | 0.00 | 0.00 | 0.00 | 52 | 1018.2 |
| 20260504023504 | 9 | 115 | 0.0 | 3.2 | 0.00 | 0.00 | 0.00 | 52 | 1018.2 |
| 20260504023004 | 9 | 115 | 0.0 | 3.2 | 0.00 | 0.00 | 0.00 | 53 | 1018.4 |
| 20260504022504 | 9 | 115 | 0.0 | 3.2 | 0.00 | 0.00 | 0.00 | 53 | 1018.2 |
| 20260504022004 | 10 | 115 | 1.6 | 3.2 | 0.00 | 0.00 | 0.00 | 51 | 1018.1 |
| 20260504021504 | 10 | 115 | 0.0 | 1.6 | 0.00 | 0.00 | 0.00 | 47 | 1018.1 |
| 20260504021004 | 11 | 115 | 0.0 | 1.6 | 0.00 | 0.00 | 0.00 | 43 | 1018.1 |
| 20260504020503 | 11 | 115 | 0.0 | 1.6 | 0.00 | 0.00 | 0.00 | 45 | 1018.1 |
| 20260504020004 | 11 | 115 | 0.0 | 0.0 | 0.00 | 0.00 | 0.00 | 45 | 1018.1 |
| 20260504015504 | 11 | 115 | 0.0 | 0.0 | 0.00 | 0.00 | 0.00 | 46 | 1018.1 |
| 20260504014504 | 11 | 115 | 0.0 | 3.2 | 0.00 | 0.00 | 0.00 | 45 | 1018.0 |
| 20260504014004 | 11 | 115 | 1.6 | 3.2 | 0.00 | 0.00 | 0.00 | 45 | 1017.9 |
| 20260504013503 | 11 | 115 | 0.0 | 1.6 | 0.00 | 0.00 | 0.00 | 44 | 1017.8 |
| 20260504013004 | 11 | 115 | 0.0 | 0.0 | 0.00 | 0.00 | 0.00 | 45 | 1017.8 |
| 20260504012504 | 11 | 115 | 0.0 | 0.0 | 0.00 | 0.00 | 0.00 | 44 | 1017.8 |
| 20260504012005 | 11 | 115 | 0.0 | 0.0 | 0.00 | 0.00 | 0.00 | 44 | 1017.7 |
| 20260504011504 | 12 | 115 | 0.0 | 0.0 | 0.00 | 0.00 | 0.00 | 43 | 1017.6 |
| 20260504011006 | 12 | 115 | 0.0 | 0.0 | 0.00 | 0.00 | 0.00 | 40 | 1017.6 |
| 20260504010503 | 12 | 115 | 0.0 | 0.0 | 0.00 | 0.00 | 0.00 | 40 | 1017.4 |
| 20260504010005 | 12 | 115 | 0.0 | 0.0 | 0.00 | 0.00 | 0.00 | 38 | 1017.5 |
| 20260504005504 | 12 | 115 | 0.0 | 0.0 | 0.00 | 0.00 | 0.00 | 38 | 1017.5 |
| 20260504005004 | 12 | 115 | 0.0 | 0.0 | 0.00 | 0.00 | 0.00 | 40 | 1017.5 |
| 20260504004504 | 12 | 115 | 0.0 | 0.0 | 0.00 | 0.00 | 0.00 | 40 | 1017.4 |
| 20260504003004 | 13 | 115 | 0.0 | 1.6 | 0.00 | 0.00 | 0.00 | 39 | 1017.2 |
| 20260504002504 | 13 | 115 | 0.0 | 1.6 | 0.00 | 0.00 | 0.00 | 39 | 1017.2 |
| 20260504002004 | 14 | 115 | 0.0 | 1.6 | 0.00 | 0.00 | 0.00 | 38 | 1017.1 |
| 20260504001504 | 15 | 128 | 0.0 | 1.6 | 0.00 | 0.00 | 0.00 | 35 | 1017.2 |
| 20260504001005 | 15 | 139 | 0.0 | 1.6 | 0.00 | 0.00 | 0.00 | 35 | 1017.2 |
| 20260504000504 | 15 | 139 | 0.0 | 1.6 | 0.00 | 0.00 | 0.00 | 31 | 1017.3 |
| 20260504000004 | 15 | 139 | 0.0 | 3.2 | 0.00 | 0.00 | 0.00 | 31 | 1017.3 |
| 20260503235504 | 15 | 139 | 1.6 | 3.2 | 0.00 | 0.00 | 0.00 | 31 | 1017.2 |
| 20260503235004 | 15 | 252 | 1.6 | 4.8 | 0.00 | 0.00 | 0.00 | 30 | 1017.3 |
| 20260503234504 | 16 | 253 | 1.6 | 8.0 | 0.00 | 0.00 | 0.00 | 29 | 1017.3 |
| 20260503233504 | 16 | 332 | 3.2 | 12.9 | 0.00 | 0.00 | 0.00 | 28 | 1017.3 |
| 20260503233004 | 16 | 331 | 3.2 | 12.9 | 0.00 | 0.00 | 0.00 | 28 | 1017.3 |
| 20260503232504 | 16 | 207 | 3.2 | 12.9 | 0.00 | 0.00 | 0.00 | 29 | 1017.2 |
| 20260503231504 | 17 | 202 | 4.8 | 12.9 | 0.00 | 0.00 | 0.00 | 28 | 1017.2 |
| 20260503231004 | 17 | 225 | 4.8 | 12.9 | 0.00 | 0.00 | 0.00 | 27 | 1017.1 |
| 20260503230505 | 17 | 311 | 1.6 | 12.9 | 0.00 | 0.00 | 0.00 | 28 | 1017.1 |
| 20260503230006 | 17 | 237 | 1.6 | 19.3 | 0.00 | 0.00 | 0.00 | 28 | 1017.0 |
| 20260503225504 | 17 | 324 | 3.2 | 19.3 | 0.00 | 0.00 | 0.00 | 28 | 1016.9 |
| 20260503225004 | 17 | 231 | 3.2 | 19.3 | 0.00 | 0.00 | 0.00 | 27 | 1017.1 |
| 20260503224004 | 17 | 305 | 1.6 | 11.3 | 0.00 | 0.00 | 0.00 | 28 | 1017.1 |
| 20260503223504 | 18 | 355 | 1.6 | 9.7 | 0.00 | 0.00 | 0.00 | 29 | 1017.1 |
| 20260503223004 | 18 | 344 | 4.8 | 11.3 | 0.00 | 0.00 | 0.00 | 26 | 1017.1 |
| 20260503222004 | 17 | 5 | 3.2 | 9.7 | 0.00 | 0.00 | 0.00 | 29 | 1017.2 |
| 20260503221504 | 17 | 225 | 1.6 | 9.7 | 0.00 | 0.00 | 0.00 | 28 | 1017.2 |
| 20260503221004 | 17 | 222 | 1.6 | 14.5 | 0.00 | 0.00 | 0.00 | 27 | 1017.3 |
| 20260503220504 | 17 | 325 | 3.2 | 16.1 | 0.00 | 0.00 | 0.00 | 29 | 1017.4 |
| 20260503220004 | 17 | 186 | 4.8 | 16.1 | 0.00 | 0.00 | 0.00 | 26 | 1017.4 |
| 20260503215505 | 17 | 336 | 4.8 | 16.1 | 0.00 | 0.00 | 0.00 | 30 | 1017.5 |
| 20260503215004 | 17 | 304 | 3.2 | 12.9 | 0.00 | 0.00 | 0.00 | 26 | 1017.4 |
| 20260503214504 | 17 | 337 | 4.8 | 12.9 | 0.00 | 0.00 | 0.00 | 28 | 1017.5 |
| 20260503214004 | 17 | 210 | 3.2 | 11.3 | 0.00 | 0.00 | 0.00 | 24 | 1017.5 |
| 20260503213505 | 17 | 224 | 4.8 | 20.9 | 0.00 | 0.00 | 0.00 | 26 | 1017.5 |
| 20260503213005 | 17 | 332 | 4.8 | 20.9 | 0.00 | 0.00 | 0.00 | 26 | 1017.6 |
| 20260503212505 | 17 | 342 | 12.9 | 20.9 | 0.00 | 0.00 | 0.00 | 27 | 1017.6 |
| 20260503212004 | 17 | 263 | 4.8 | 12.9 | 0.00 | 0.00 | 0.00 | 25 | 1017.7 |
| 20260503211504 | 17 | 235 | 3.2 | 12.9 | 0.00 | 0.00 | 0.00 | 27 | 1017.6 |
| 20260503211005 | 17 | 347 | 6.4 | 22.5 | 0.00 | 0.00 | 0.00 | 26 | 1017.7 |
| 20260503210504 | 17 | 233 | 9.7 | 22.5 | 0.00 | 0.00 | 0.00 | 28 | 1017.8 |
| 20260503210005 | 17 | 230 | 9.7 | 20.9 | 0.00 | 0.00 | 0.00 | 30 | 1017.7 |
| 20260503205505 | 17 | 228 | 6.4 | 19.3 | 0.00 | 0.00 | 0.00 | 26 | 1017.7 |
| 20260503204505 | 17 | 294 | 4.8 | 19.3 | 0.00 | 0.00 | 0.00 | 28 | 1017.7 |
| 20260503204005 | 17 | 355 | 9.7 | 24.1 | 0.00 | 0.00 | 0.00 | 27 | 1017.8 |
| 20260503203504 | 17 | 8 | 8.0 | 24.1 | 0.00 | 0.00 | 0.00 | 30 | 1017.9 |
| 20260503203004 | 17 | 330 | 8.0 | 19.3 | 0.00 | 0.00 | 0.00 | 29 | 1018.0 |
| 20260503202504 | 17 | 336 | 3.2 | 19.3 | 0.00 | 0.00 | 0.00 | 31 | 1018.0 |
| 20260503202004 | 17 | 339 | 3.2 | 19.3 | 0.00 | 0.00 | 0.00 | 29 | 1018.1 |
| 20260503201004 | 17 | 211 | 9.7 | 24.1 | 0.00 | 0.00 | 0.00 | 29 | 1018.2 |
| 20260503200504 | 17 | 329 | 6.4 | 24.1 | 0.00 | 0.00 | 0.00 | 28 | 1018.3 |
| 20260503200004 | 17 | 218 | 9.7 | 22.5 | 0.00 | 0.00 | 0.00 | 29 | 1018.5 |
| 20260503195504 | 16 | 316 | 8.0 | 24.1 | 0.00 | 0.00 | 0.00 | 31 | 1018.4 |
| 20260503195005 | 16 | 241 | 11.3 | 24.1 | 0.00 | 0.00 | 0.00 | 32 | 1018.7 |
| 20260503194504 | 17 | 203 | 8.0 | 27.4 | 0.00 | 0.00 | 0.00 | 34 | 1018.6 |
| 20260503194004 | 16 | 351 | 8.0 | 27.4 | 0.00 | 0.00 | 0.00 | 32 | 1018.7 |
| 20260503193504 | 16 | 347 | 4.8 | 19.3 | 0.00 | 0.00 | 0.00 | 33 | 1018.7 |
| 20260503193005 | 16 | 334 | 4.8 | 19.3 | 0.00 | 0.00 | 0.00 | 30 | 1018.7 |
| 20260503192504 | 16 | 301 | 8.0 | 19.3 | 0.00 | 0.00 | 0.00 | 32 | 1018.9 |
| 20260503191504 | 16 | 206 | 9.7 | 20.9 | 0.00 | 0.00 | 0.00 | 31 | 1018.9 |
| 20260503191004 | 16 | 324 | 11.3 | 27.4 | 0.00 | 0.00 | 0.00 | 31 | 1018.9 |
| 20260503190504 | 16 | 215 | 6.4 | 32.2 | 0.00 | 0.00 | 0.00 | 33 | 1018.9 |
| 20260503185504 | 15 | 242 | 3.2 | 19.3 | 0.00 | 0.00 | 0.00 | 32 | 1019.5 |
| 20260503185004 | 15 | 200 | 6.4 | 20.9 | 0.00 | 0.00 | 0.00 | 34 | 1019.7 |
| 20260503184005 | 15 | 323 | 8.0 | 22.5 | 0.00 | 0.00 | 0.00 | 35 | 1019.8 |
| 20260503183505 | 15 | 294 | 6.4 | 22.5 | 0.00 | 0.00 | 0.00 | 33 | 1019.9 |
| 20260503183004 | 15 | 324 | 9.7 | 20.9 | 0.00 | 0.00 | 0.00 | 34 | 1019.9 |
| 20260503182504 | 15 | 239 | 8.0 | 19.3 | 0.00 | 0.00 | 0.00 | 35 | 1019.8 |
| 20260503182005 | 15 | 204 | 9.7 | 24.1 | 0.00 | 0.00 | 0.00 | 33 | 1019.9 |
| 20260503181505 | 15 | 248 | 9.7 | 24.1 | 0.00 | 0.00 | 0.00 | 35 | 1019.9 |
| 20260503181004 | 15 | 229 | 9.7 | 22.5 | 0.00 | 0.00 | 0.00 | 36 | 1019.9 |
| 20260503180504 | 14 | 339 | 11.3 | 22.5 | 0.00 | 0.00 | 0.00 | 36 | 1020.1 |
| 20260503175504 | 14 | 331 | 6.4 | 20.9 | 0.00 | 0.00 | 0.00 | 40 | 1020.2 |
| 20260503174504 | 14 | 338 | 6.4 | 16.1 | 0.00 | 0.00 | 0.00 | 38 | 1020.2 |
| 20260503174004 | 13 | 319 | 4.8 | 19.3 | 0.00 | 0.00 | 0.00 | 36 | 1020.3 |
| 20260503172504 | 13 | 340 | 3.2 | 19.3 | 0.00 | 0.00 | 0.00 | 37 | 1020.5 |
| 20260503172004 | 13 | 207 | 9.7 | 19.3 | 0.00 | 0.00 | 0.00 | 38 | 1020.6 |
| 20260503171504 | 13 | 224 | 9.7 | 19.3 | 0.00 | 0.00 | 0.00 | 38 | 1020.6 |
| 20260503171003 | 13 | 188 | 4.8 | 14.5 | 0.00 | 0.00 | 0.00 | 39 | 1020.7 |
| 20260503151004 | 10 | 320 | 11.3 | 24.1 | 0.00 | 0.00 | 0.00 | 44 | 1022.0 |
| 20260503150504 | 10 | 339 | 4.8 | 19.3 | 0.00 | 0.00 | 0.00 | 47 | 1021.9 |
| 20260503131005 | 7 | 345 | 9.7 | 19.3 | 0.00 | 0.00 | 0.00 | 50 | 1021.9 |
| 20260503130504 | 7 | 316 | 8.0 | 22.5 | 0.00 | 0.00 | 0.00 | 50 | 1021.8 |
| 20260503110504 | 5 | 325 | 1.6 | 8.0 | 0.00 | 0.00 | 0.00 | 59 | 1020.9 |
| 20260503090504 | 5 | 331 | 0.0 | 8.0 | 0.00 | 0.00 | 0.00 | 57 | 1018.8 |
| 20260503081504 | 6 | 349 | 0.0 | 11.3 | 0.00 | 0.00 | 0.00 | 58 | 1018.4 |
| 20260503081004 | 5 | 346 | 3.2 | 11.3 | 0.00 | 0.00 | 0.00 | 59 | 1018.3 |
| 20260503080504 | 5 | 313 | 3.2 | 11.3 | 0.00 | 0.00 | 0.00 | 60 | 1018.3 |
| 20260503072504 | 6 | 288 | 0.0 | 4.8 | 0.00 | 0.00 | 0.00 | 59 | 1018.1 |
| 20260503071504 | 6 | 289 | 1.6 | 12.9 | 0.00 | 0.00 | 0.00 | 57 | 1018.0 |
| 20260503071004 | 6 | 6 | 3.2 | 12.9 | 0.00 | 0.00 | 0.00 | 58 | 1018.0 |